Regional Weather Roundup
Issued by NWS Boston, MA

Home | Current Version | Previous Version | Text Only | Print | Product List | Glossary On
Versions: 1 2 3 4 5 6 7 8 9 10 11 12 13 14 15 16 17 18 19 20 21 22 23 24 25 26 27 28 29 30 31 32 33 34 35 36 37 38 39 40 41 42 43 44 45 46 47 48 49 50
000
ASUS41 KBOX 301610
RWRBOX

REGIONAL WEATHER ROUNDUP
NATIONAL WEATHER SERVICE TAUNTON MA
1200 PM EDT WED JUL 30 2014

NOTE:  "FAIR" INDICATES FEW OR NO CLOUDS BELOW 12,000 FEET WITH NO
SIGNIFICANT WEATHER AND/OR OBSTRUCTIONS TO VISIBILITY.  THE FOLLOWING
OBSERVATION LOCATIONS DO NOT REPORT PRESENT WEATHER...PROVINCETOWN...
SMITHFIELD...BLOCK ISLAND...KEENE...AND OXFORD.

MAZALL-301700-
EASTERN MASSACHUSETTS

CITY           SKY/WX    TMP DP  RH WIND       PRES   REMARKS
BOSTON         MOSUNNY   76  47  35 SW9       30.00S
BEVERLY        PTSUNNY   74  54  49 W8        29.99F
LAWRENCE       CLOUDY    72  60  66 W6        30.02S
BEDFORD        CLOUDY    73  56  54 N6        29.99S
BLUE HILL        N/A     74  53  48 VRB7      30.01S
NORWOOD        MOSUNNY   75  51  43 W10       30.00S
MARSHFIELD     SUNNY     75  55  50 SE6       30.01S
PLYMOUTH       PTSUNNY   76  51  41 VRB7      30.01S
TAUNTON        SUNNY     78  51  38 NW6       30.00S
NEW BEDFORD    MOSUNNY   77  53  43 SW9       30.00S
$$

MAZALL-301700-
CAPE COD AND THE ISLANDS

CITY           SKY/WX    TMP DP  RH WIND       PRES   REMARKS
FALMOUTH       SUNNY     77  54  44 W8        30.01S
HYANNIS          N/A     77  57  50 VRB7      29.99F
CHATHAM        SUNNY     79  58  48 SW9       30.01S
PROVINCETOWN   SUNNY     77  55  47 SW7       30.01S
NANTUCKET      SUNNY     72  61  68 SW8       30.01S
MARTHAS VNYRD  SUNNY     76  54  46 NW6       30.01S
$$

MAZALL-301700-
CENTRAL AND WESTERN MASSACHUSETTS

CITY           SKY/WX    TMP DP  RH WIND       PRES   REMARKS
WORCESTER      PTSUNNY   70  50  49 W7        30.03S
FITCHBURG      MOSUNNY   75  56  51 N6        30.02F
ORANGE         MOSUNNY   73  54  51 S3        30.01F
SPRINGFIELD    SUNNY     72  56  57 VRB6      30.01F
WESTFIELD      MOSUNNY   74  57  55 VRB3      30.01F
NORTH ADAMS    CLOUDY    70  57  63 N5        30.02F
PITTSFIELD     MOSUNNY   68  53  58 W7        30.03F
$$

RIZALL-301700-
RHODE ISLAND

CITY           SKY/WX    TMP DP  RH WIND       PRES   REMARKS
PROVIDENCE     MOSUNNY   78  49  35 W7G17     30.01S
NEWPORT        SUNNY     76  54  46 W5        30.01S
BLOCK ISLAND   SUNNY     75  54  46 SW7       30.03S
SMITHFIELD     MOSUNNY   73  52  46 SW6       30.02S
WESTERLY       SUNNY     76  51  41 SW9       30.02S
$$

CTZALL-301700-
CONNECTICUT

CITY           SKY/WX    TMP DP  RH WIND       PRES   REMARKS
BRADLEY INTL   MOSUNNY   76  54  46 NW7       30.01F
HARTFORD       MOSUNNY   74  50  42 VRB5      30.01F
BRIDGEPORT     SUNNY     74  57  55 S9        30.02F
DANBURY        MOSUNNY   73  52  47 VRB3      30.04F
GROTON         MOSUNNY   71  60  68 S8        30.01S
NEW HAVEN      MOSUNNY   77  55  46 VRB6      30.02F
CHESTER        FAIR      73  52  46 W5        30.03F
MERIDEN        MOSUNNY   76  49  38 NW6       30.02S
WILLIMANTIC    SUNNY     76  52  43 VRB3      30.02S
OXFORD         MOSUNNY   72  54  53 VRB6      30.06S
$$

MEZ002-015-021-024-NHZ003-005-008-011-012-014-VTZ005-008-301700-
NORTHERN NEW ENGLAND

CITY           SKY/WX    TMP DP  RH WIND       PRES   REMARKS
PORTLAND ME    PTSUNNY   68  62  81 N7        30.01S
BANGOR ME      PTSUNNY   73  58  59 NW3       30.03F
CONCORD NH     CLOUDY    71  56  58 CALM      30.01F
MANCHESTER NH  PTSUNNY   73  56  54 VRB3      29.99F
NASHUA NH      MOSUNNY   73  58  59 VRB3      30.02S
PORTSMOUTH NH  MOSUNNY   74  58  56 VRB3      29.99S
JAFFREY NH     MOSUNNY   70  52  52 VRB5      30.03F
KEENE NH       SUNNY     72  50  46 SW8       30.03S
BURLINGTON VT  MOSUNNY   72  52  49 S7        30.00F
MT. WASHINGTON CLOUDY    45  34  65 W6          N/A
$$

NYZ052-076-301700-
EASTERN NEW YORK

CITY           SKY/WX    TMP DP  RH WIND       PRES   REMARKS
ALBANY         MOSUNNY   72  53  51 VRB5      30.03F
NEW YORK CITY  MOSUNNY   77  47  34 VRB6      30.02F
$$

ANZALL-301700-
MARINE OBSERVATIONS

STATION/POSITION TIME  TEMP    WIND        PRES    VSBY  WAVE
                       AIR SEA DIR/SP/G                  HT/PER
                 (UTC) (F)     (DEG/KT/KT) (MB)    (MI)  (FT/S)
BOSTON BUOY      NOT AVBL
BUZZARDS BAY     NOT AVBL
NANTUCKET SOUND  NOT AVBL
MASS BAY-STELLWA NOT AVBL
ISLE OF SHOALS   NOT AVBL
S OF BLOCK IS    NOT AVBL
$$

......................KEY.........................
  SKY/WX - SKY CONDITION/PRESENT WEATHER
  TMP    - TEMPERATURE IN FAHRENHEIT
  DWPT   - DEWPOINT IN FAHRENHEIT
  RH     - RELATIVE HUMIDITY IN PERCENT
  WIND   - DIRECTION AND SPEED IN MPH
  PRES   - MEAN SEA LEVEL PRESSURE IN INCHES OF HG
  WCI    - WIND CHILL INDEX
  VSB    - VISIBILITY IN MILES
  HX     - HEAT INDEX
  TC     - TEMPERATURE IN CELSIUS
  VRB    - VARIABLE WIND DIRECTION
  N/A    - NOT AVAILABLE


USA.gov is the U.S. government's official web portal to all federal, state and local government web resources and services.